This is the latest recevied weather packets stored in our database for station/object IU1DOF-3. If no packets are shown the sender has not sent any weather packets the latest 10 day(s).
| Time | Temp. | Humidity | Pressure | Rain* | Wind** | Luminosity | Snow |
|---|---|---|---|---|---|---|---|
| 1777697621 | 4.44° C | 88% | 1023.9 hPa | 0 mm | - | - | - |
| 1777697008 | 4.44° C | 87% | 1024 hPa | 0 mm | - | - | - |
| 1777696383 | 4.44° C | 88% | 1024 hPa | 0 mm | - | - | - |
| 1777695759 | 4.44° C | 85% | 1024 hPa | 0 mm | - | - | - |
| 1777695135 | 5° C | 87% | 1024.1 hPa | 0 mm | - | - | - |
| 1777694512 | 4.44° C | 87% | 1023.9 hPa | 0 mm | - | - | - |
| 1777693901 | 4.44° C | 89% | 1024.1 hPa | 0 mm | - | - | - |
| 1777693282 | 4.44° C | 89% | 1023.9 hPa | 0 mm | - | - | - |
| 1777692656 | 4.44° C | 90% | 1023.9 hPa | 0 mm | - | - | - |
| 1777692041 | 5° C | 88% | 1023.8 hPa | 0 mm | - | - | - |
| 1777691423 | 5° C | 88% | 1024 hPa | 0 mm | - | - | - |
| 1777690800 | 5° C | 88% | 1023.7 hPa | 0 mm | - | - | - |
| 1777690181 | 5° C | 89% | 1023.8 hPa | 0 mm | - | - | - |
| 1777689567 | 5° C | 88% | 1023.9 hPa | 0 mm | - | - | - |
| 1777688946 | 5.56° C | 89% | 1024 hPa | 0 mm | - | - | - |
| 1777688320 | 5.56° C | 87% | 1024.2 hPa | 0 mm | - | - | - |
| 1777687696 | 5° C | 89% | 1024.1 hPa | 0 mm | - | - | - |
| 1777687072 | 5° C | 92% | 1023.9 hPa | 0 mm | - | - | - |
| 1777686461 | 5.56° C | 89% | 1024.2 hPa | 0 mm | - | - | - |
| 1777685840 | 5.56° C | 90% | 1023.8 hPa | 0 mm | - | - | - |
| 1777685216 | 5.56° C | 91% | 1023.8 hPa | 0 mm | - | - | - |
| 1777684600 | 5.56° C | 92% | 1023.8 hPa | 0 mm | - | - | - |
| 1777683985 | 6.11° C | 89% | 1023.9 hPa | 0 mm | - | - | - |
| 1777683360 | 6.11° C | 88% | 1023.7 hPa | 0 mm | - | - | - |
| 1777682741 | 6.11° C | 90% | 1023.9 hPa | 0 mm | - | - | - |
* Rain latest hour (hover to see other rain measurements)
** Current wind speed in m/s (hover to see current wind gust speed)